Flag for United Kingdom Weather past 2 weeks in Loughton, England, United Kingdom

Now
41 °F

Quite cool.


Feels Like: 33 °F
Forecast: N/A
Wind: 15 mph from Southwest

Location: Gravesend-Broadness

Current Time: Mar 2, 2015 at 11:18:23 PM

Latest Report: Mar 2, 2015 at 10:00 PM


Visibility: N/A

Pressure: 29.98 "Hg

Humidity: 66%

Dew point: 30 °F

Location of LoughtonLocation

Historic Weather in Loughton — Graph

°F

Loughton temperature yesterday

Maximum temperature yesterday: 53 °F (at 3:00 PM)
Minimum temperature yesterday: 43 °F (at 11:00 PM)
Average temperature yesterday: 48 °F

Past Weeks' High & Low Weather Summary

 TemperatureHumidityPressure
High53 °F (Mar 1, 3:00 PM)100% (Feb 16, 12:00 AM)30.75 "Hg (Feb 16, 12:00 AM)
Low28 °F (Feb 22, 7:00 AM)40% (Mar 2, 4:00 PM)29.23 "Hg (Feb 22, 11:00 PM)
Average43 °F78%29.87 "Hg
* Reported Feb 15 10:00 PM — Mar 2 10:00 PM, Loughton, Weather by CustomWeather, © 2015

Note: Actual official high and low records may vary slightly from our data, if they occured in-between our weather recording intervals... More about our weather records

Advertising

Loughton weather history for previous 24 hours

 ConditionsComfort  
Time TempWeatherWind HumidityBarometerVisibility
10:00 PM
Mon, Mar 2
41 °FQuite cool.15 mph66%29.98 "HgN/A
8:00 PM41 °FQuite cool.13 mph62%29.94 "HgN/A
7:00 PM43 °FQuite cool.15 mph48%29.92 "HgN/A
6:00 PM44 °FQuite cool.14 mph47%29.90 "HgN/A
5:00 PM46 °FCool.17 mph41%29.87 "HgN/A
4:00 PM47 °FCool.22 mph40%29.85 "HgN/A
3:00 PM47 °FCool.21 mph42%29.83 "HgN/A
2:00 PM46 °FCool.24 mph48%29.80 "HgN/A
1:00 PM45 °FCool.26 mph46%29.77 "HgN/A
12:00 PM45 °FCool.23 mph53%29.73 "HgN/A
11:00 AM44 °FQuite cool.22 mph57%29.72 "HgN/A
10:00 AM43 °FQuite cool.20 mph70%29.69 "HgN/A
9:00 AM42 °FQuite cool.21 mph73%29.66 "HgN/A
8:00 AM40 °FQuite cool.12 mph76%29.65 "HgN/A
7:00 AM39 °FChilly.10 mph78%29.64 "HgN/A
6:00 AM38 °FChilly.10 mph81%29.62 "HgN/A
5:00 AM39 °FChilly.13 mph82%29.61 "HgN/A
4:00 AM38 °FChilly.12 mph83%29.60 "HgN/A
3:00 AM39 °FChilly.9 mph82%29.60 "HgN/A
2:00 AM39 °FChilly.8 mph82%29.59 "HgN/A
1:00 AM40 °FQuite cool.9 mph79%29.57 "HgN/A
12:00 AM42 °FQuite cool.10 mph79%29.55 "HgN/A
11:00 PM
Sun, Mar 1
43 °FQuite cool.14 mph78%29.53 "HgN/A
Weather by CustomWeather, © 2015

See weather overviewHow to use our weather pages